Location: Le Tertre
(47.7133°N, 1.2737°W)
Time: 14:21:24
(UTC+00:00)

Daily predictions for brighter satellites

Satellite Brightness Start Highest point End
(mag) Time Altitude Azimuth Time Altitude Azimuth Time Altitude Azimuth
STARLINK-78 3.6 18:05:26 10° WSW 18:09:26 81° SSE 18:13:29 10° ENE
Cosmos 2061 Rocket 4.1 18:03:51 10° S 18:10:17 82° E 18:16:40 10° N
STARLINK-28 3.5 18:07:04 10° W 18:10:17 54° NNW 18:13:30 10° ENE
STARLINK-1007 3.0 18:07:08 10° SW 18:10:18 68° SSE 18:13:30 10° ENE
STARLINK-57 3.6 18:07:09 10° WSW 18:11:11 85° SSE 18:15:14 10° ENE
Cosmos 2297 4.1 18:05:55 10° SW 18:11:33 69° WNW 18:17:12 10° NNE
Cosmos 1782 4.4 18:08:13 10° NNW 18:12:02 42° W 18:15:47 10° SSW
STARLINK-49 3.5 18:08:41 10° WSW 18:12:43 84° SSE 18:16:45 10° ENE
STARLINK-27 3.5 18:10:21 10° WSW 18:14:22 86° SSE 18:18:25 10° ENE
STARLINK-74 3.5 18:12:01 10° WSW 18:16:02 87° SSE 18:20:04 10° ENE
Meteor 2-6 Rocket 4.5 18:10:37 10° NNW 18:16:11 75° W 18:21:35 10° S
Cosmos 1812 2.8 18:12:40 10° N 18:16:30 57° ENE 18:20:18 10° SSE
STARLINK-39 3.6 18:13:39 10° WSW 18:17:41 89° SSE 18:21:44 10° ENE
Meteor 1-10 Rocket 4.3 18:12:20 10° NNW 18:17:59 84° W 18:23:31 10° S
Cosmos 2369 Rocket 2.5 18:13:05 10° S 18:18:27 47° ESE 18:23:53 10° NE
YAOGAN 1 2.6 18:14:21 10° SSE 18:18:35 60° ENE 18:22:52 10° N
STARLINK-42 3.5 18:16:00 10° W 18:19:11 55° NNW 18:22:24 10° ENE
STARLINK-31 3.6 18:15:20 10° WSW 18:19:22 89° NNW 18:23:24 10° ENE
Cosmos 1864 Rocket 4.4 18:13:41 10° S 18:19:50 78° E 18:25:59 10° NNE
STARLINK-69 3.6 18:17:09 10° WSW 18:21:10 83° NNW 18:25:13 10° ENE
Cosmos 2285 Rocket 4.2 18:15:23 10° NNW 18:21:35 50° ENE 18:27:46 10° SE
STARLINK-21 3.6 18:18:38 10° WSW 18:22:40 85° NNW 18:26:43 10° ENE
SL-27 R/B 2.2 18:19:22 10° NNW 18:22:44 86° ENE 18:26:02 10° SSE
Cosmos 1802 Rocket 4.4 18:16:31 10° SSW 18:22:48 73° W 18:29:13 10° N
Cosmos 1633 Rocket 3.1 18:18:53 10° S 18:23:07 58° E 18:27:24 10° NNE
STARLINK-1010 2.9 18:20:31 10° WSW 18:23:44 85° SSE 18:26:52 11° ENE
Tsikada Rocket 4.1 18:17:54 10° N 18:24:18 82° E 18:30:44 10° S
STARLINK-45 3.6 18:20:31 10° WSW 18:24:32 79° NNW 18:28:35 10° ENE
CZ-2D R/B 3.4 18:21:04 10° SSE 18:24:51 54° ENE 18:28:41 10° N
STARLINK-1020 4.4 18:21:30 10° SSW 18:25:16 35° SE 18:28:45 12° ENE
USA 234 4.1 18:19:56 10° ENE 18:25:54 40° N 18:31:53 10° WNW
STARLINK-1047 4.4 18:22:16 10° SSW 18:26:06 36° SE 18:29:37 12° ENE
STARLINK-70 3.6 18:22:05 10° WSW 18:26:07 79° NNW 18:30:06 10° ENE
Cosmos 1862 3.4 18:22:19 10° S 18:26:18 84° W 18:30:18 10° N
SKYMED 2 3.6 18:22:04 10° NNE 18:26:27 89° WNW 18:30:48 10° SSW
STARLINK-76 3.6 18:23:37 10° WSW 18:27:38 80° NNW 18:31:34 11° ENE
STARLINK-23 3.6 18:25:17 10° WSW 18:29:18 79° NNW 18:33:10 11° ENE
Cosmos 1666 Rocket 3.6 18:25:21 10° S 18:29:49 83° E 18:34:20 10° N
NOSS 2-3 (D) 4.3 18:26:17 10° S 18:30:12 35° ESE 18:34:42 10° NE
STARLINK-1052 4.3 18:26:25 10° SSW 18:30:15 38° SE 18:33:34 13° ENE
Cosmos 1933 Rocket 4.4 18:26:46 10° SSE 18:30:34 29° E 18:34:22 10° NNE
STARLINK-29 3.0 18:27:17 10° WNW 18:30:42 78° NNE 18:33:51 12° ESE
STARLINK-32 3.6 18:26:57 10° WSW 18:30:58 77° NNW 18:34:46 11° ENE
USA 229 DEB 3.7 18:25:26 10° SW 18:32:00 85° SE 18:38:56 10° NE
USA 229 3.7 18:25:33 10° SW 18:32:06 84° SE 18:39:02 10° NE
STARLINK-40 3.7 18:28:35 10° WSW 18:32:36 76° NNW 18:36:20 12° ENE
STARLINK-44 3.7 18:30:15 10° WSW 18:34:16 74° NNW 18:37:56 12° ENE
Cosmos 44 3.0 18:30:16 10° NW 18:34:40 75° NE 18:39:11 10° SE
STARLINK-37 3.7 18:32:02 10° WSW 18:36:03 71° NNW 18:39:39 13° ENE
STARLINK-64 3.8 18:32:43 10° W 18:36:16 54° NNW 18:39:23 13° ENE
Cosmos 2016 Rocket 4.4 18:30:22 10° SSW 18:36:25 68° W 18:42:34 10° N
STARLINK-1029 2.8 18:33:30 10° WSW 18:36:40 83° SSE 18:39:10 15° ENE
STARLINK-36 3.7 18:33:34 10° WSW 18:37:35 72° NNW 18:41:07 13° ENE
STARLINK-1016 3.0 18:34:32 10° WSW 18:37:46 78° NNW 18:40:24 15° ENE
STARLINK-1008 3.1 18:34:30 10° WSW 18:37:47 78° NNW 18:40:28 15° ENE
STARLINK-75 3.8 18:34:29 10° W 18:37:47 47° NNW 18:40:37 13° NE
NOSS 3-1 (A) 3.3 18:33:46 10° SSW 18:39:11 63° ESE 18:45:30 10° NE
Cosmos 1346 Rocket 3.4 18:35:38 10° SSE 18:39:16 35° E 18:42:54 10° NNE
STARLINK-68 3.8 18:35:26 10° WSW 18:39:26 67° NNW 18:42:53 14° ENE
STARLINK-1033 4.1 18:36:14 10° SW 18:40:09 44° SE 18:43:08 16° ENE
STARLINK-22 3.7 18:36:55 10° W 18:40:13 51° NNW 18:42:56 14° NE
STARLINK-1035 4.0 18:36:43 10° SW 18:40:50 50° SE 18:44:00 16° ENE
STARLINK-1025 3.1 18:37:35 10° WSW 18:40:51 74° NNW 18:43:22 16° ENE
STARLINK-63 3.8 18:36:59 10° WSW 18:40:59 67° NNW 18:44:23 14° ENE
STARLINK-41 3.8 18:38:25 10° W 18:41:42 48° NNW 18:44:20 15° NE
FALCON 9 DEB 3.2 18:38:37 10° WNW 18:42:04 79° SSW 18:45:00 14° SE
Ariane Rocket 3.4 18:37:26 10° SE 18:42:13 42° ENE 18:47:01 10° N
STARLINK-1017 3.1 18:39:07 10° WSW 18:42:22 73° NNW 18:44:50 16° ENE
STARLINK-61 4.1 18:38:36 10° W 18:42:25 49° NNW 18:45:35 14° ENE
STARLINK-35 3.8 18:38:32 10° WSW 18:42:32 68° NNW 18:45:52 15° ENE
STARLINK-52 3.0 18:39:29 10° WNW 18:42:53 85° NNE 18:45:26 16° ESE
USA 116 3.8 18:39:17 10° NNE 18:43:14 76° ESE 18:47:42 10° S
STARLINK-48 4.4 18:39:53 10° WNW 18:43:33 38° N 18:46:26 15° ENE
Cosmos 2263 4.4 18:38:00 10° S 18:43:36 54° ESE 18:49:12 10° NE
STARLINK-51 3.8 18:40:13 10° WSW 18:44:13 66° NNW 18:47:29 15° ENE
STARLINK-26 4.3 18:41:17 10° WNW 18:44:29 34° N 18:46:53 15° NE
ARGOS 4.0 18:40:12 10° ESE 18:44:48 29° ENE 18:49:27 10° N
STARLINK-30 3.8 18:41:53 10° WSW 18:45:53 65° NNW 18:49:04 16° ENE
CSL-04 Rocket 3.8 18:40:39 10° SSE 18:46:12 86° WSW 18:51:43 10° NNW
STARLINK-1048 3.2 18:43:46 10° WSW 18:47:02 68° NNW 18:49:20 18° ENE
STARLINK 1040 3.1 18:44:19 10° W 18:47:04 53° NNW 18:48:51 19° NE
STARLINK-72 3.8 18:43:31 10° WSW 18:47:31 64° NNW 18:50:38 16° ENE
CENTAUR R/B 4.3 18:42:14 10° NW 18:48:10 25° NNE 18:54:06 12° ENE
STARLINK-60 4.3 18:45:30 10° WNW 18:48:36 39° SW 18:51:42 10° SSE
STARLINK-1049 3.2 18:45:21 10° WSW 18:48:36 67° NNW 18:50:50 19° ENE
STARLINK-50 3.8 18:45:11 10° WSW 18:49:11 63° NNW 18:52:14 17° ENE
STARLINK-1024 3.9 18:46:03 10° SW 18:50:04 51° SE 18:52:41 20° ENE
STARLINK-1028 3.2 18:46:56 10° WSW 18:50:13 65° NNW 18:52:24 19° NE
STARLINK-1051 3.2 18:46:57 10° WSW 18:50:13 65° NNW 18:52:24 19° NE
STARLINK-59 3.9 18:46:58 10° WSW 18:50:57 60° NNW 18:53:56 17° ENE
STARLINK-1027 3.8 18:47:14 10° SW 18:51:26 62° SE 18:54:17 20° ENE
Cosmos 2233 Rocket 3.9 18:45:32 10° S 18:51:40 85° E 18:57:55 10° N
STARLINK-1021 3.3 18:48:35 10° WSW 18:51:51 63° NNW 18:53:58 20° NE
STARLINK-56 3.9 18:48:30 10° WSW 18:52:29 61° NNW 18:55:24 18° ENE
STARLINK-1014 3.2 18:49:21 10° WSW 18:52:49 75° NNW 18:55:03 20° ENE
STARLINK-1019 3.3 18:50:13 10° WSW 18:53:30 62° NNW 18:55:33 21° NE
STARLINK-73 3.9 18:50:11 10° WSW 18:54:09 60° NNW 18:57:00 18° NE
STARLINK-1012 3.3 18:51:54 10° WSW 18:55:09 61° NNW 18:57:09 21° NE
H-2A R/B 2.6 18:50:38 10° SE 18:55:36 40° ENE 19:00:40 10° N
STARLINK-38 3.9 18:51:52 10° W 18:55:50 59° NNW 18:58:37 19° NE
STARLINK-65 4.0 18:53:30 10° W 18:57:29 58° NNW 19:00:11 19° NE
STARLINK-1026 3.4 18:55:12 10° WSW 18:58:27 58° NNW 19:00:20 23° NE
DMSP B5D1-3 4.4 18:53:20 10° NNE 18:58:30 76° ESE 19:03:39 10° S
ATLAS 3B R/B 4.3 18:54:02 10° NW 18:58:48 20° N 19:03:34 10° NE
STARLINK-53 4.0 18:55:16 10° W 18:59:14 56° NNW 19:01:52 20° NE
Lacrosse 5 3.8 18:57:11 10° SE 18:58:29 12° SE 18:58:29 12° SE
STARLINK-1032 3.7 18:55:56 10° SW 18:59:59 60° SSE 19:02:16 25° ENE
STARLINK-1013 3.4 18:56:53 10° WSW 19:00:09 57° NNW 19:01:57 24° NE
Cosmos 2297 Rocket 3.9 18:57:21 10° N 19:00:44 16° NE 19:02:16 14° NE
STARLINK-1009 3.5 18:58:33 10° WSW 19:01:48 56° NNW 19:03:33 24° NE
Cosmos 724 4.4 18:56:06 10° NW 19:01:55 80° SW 19:07:44 10° SSE
Meteor 1-20 Rocket 4.3 18:57:30 10° SSE 19:02:43 47° E 19:08:00 10° NNE
Cosmos 1937 Rocket 4.3 18:58:34 10° N 19:03:14 31° NE 19:05:16 24° E
STARLINK-43 4.0 18:59:48 10° WNW 19:03:21 41° NNE 19:04:52 27° ENE
STARLINK-1015 3.5 19:00:15 10° W 19:03:31 55° NNW 19:05:11 25° NE
NOSS 2-3 (C) 3.6 18:59:54 10° SSW 19:04:13 71° SE 19:09:00 12° NE
STARLINK-1011 3.6 19:00:52 10° SW 19:04:57 64° SE 19:07:02 27° ENE
Lacrosse 5 rocket 3.1 19:03:03 10° NW 19:06:49 25° N 19:09:19 16° NE
Okean 1 3.9 19:03:20 10° N 19:07:04 35° ENE 19:08:21 28° ESE
Lacrosse 4 Rocket 3.8 19:03:59 10° W 19:07:13 20° NW 19:10:31 10° N
STARLINK-1036 3.6 19:05:49 10° SW 19:09:56 69° SSE 19:11:49 30° ENE
Cosmos 1470 Rocket 3.6 19:05:44 10° S 19:10:05 83° W 19:14:31 10° N
Cosmos 2242 Rocket 3.6 19:06:53 10° N 19:11:27 86° E 19:16:01 10° S
Resurs 01 Rocket 3.4 19:15:30 17° NE 19:15:30 17° NE 19:17:23 10° NNE
STARLINK-1044 3.5 19:10:46 10° SW 19:14:52 74° SSE 19:16:35 34° ENE
SL-08 RB Rocket 4.4 19:14:23 30° E 19:15:08 32° ENE 19:19:08 10° N
Cosmos 1862 Rocket 4.5 19:11:34 10° NNW 19:15:45 49° W 19:19:58 10° SSW
Cosmos 1943 Rocket 2.9 19:10:46 10° SW 19:16:14 54° WNW 19:21:41 10° NNE
Cosmos 1939 Rocket 4.4 19:13:17 10° SSW 19:17:10 39° W 19:21:05 10° NNW
Gbstr 26 Del rocket 3.8 19:14:05 10° SSW 19:17:46 32° SE 19:18:23 31° ESE
STARLINK-80 4.3 19:15:22 10° WNW 19:18:58 38° N 19:20:03 30° NE
Cosmos 2227 Rocket 3.7 19:15:34 10° N 19:19:22 18° NE 19:20:07 18° NE
CZ-4 R/B 3.9 19:16:56 10° SSW 19:20:24 25° W 19:23:52 10° NW
STARLINK-1031 3.4 19:17:04 10° WSW 19:21:07 87° SSE 19:22:33 39° ENE
OE (NEXTSAT) 4.4 19:19:13 10° W 19:22:41 66° S 19:23:19 52° SE
Cosmos 1340 3.3 19:19:24 10° SSW 19:23:06 56° WNW 19:26:50 10° N
Cosmos 1513 Rocket 4.4 19:17:31 10° S 19:23:28 61° E 19:29:32 10° NNE
STARLINK-1037 3.5 19:20:37 10° WSW 19:24:46 84° SSE 19:26:05 42° ENE
CZ-2C R/B 3.3 19:19:16 10° SSE 19:24:58 59° ENE 19:30:34 10° N
Cosmos 405 2.8 19:25:22 10° N 19:28:54 72° ENE 19:29:30 56° SE
STARLINK-24 4.3 19:25:35 10° W 19:29:27 45° NNW 19:30:47 32° NE
STARLINK-1059 3.5 19:25:41 10° WSW 19:29:50 89° SSE 19:30:58 47° ENE
STARLINK-1023 3.8 19:27:43 10° W 19:30:42 39° NNW 19:31:06 37° N
FREGAT/IRIS 4.0 19:33:05 27° N 19:33:05 27° N 19:34:31 10° NNW
USA 267 4.5 19:33:08 21° SE 19:33:08 21° SE 19:36:45 10° S
NOSS 3-1 (C) 4.3 19:26:57 10° WSW 19:32:25 47° NW 19:38:51 10° NE
Cosmos 1703 Rocket 3.5 19:28:12 10° N 19:32:42 90° ESE 19:37:10 10° S
Okean 1-7 2.9 19:29:05 10° N 19:33:25 79° E 19:36:19 21° SSE
STARLINK-58 4.2 19:30:20 10° W 19:33:41 37° N 19:34:19 34° NNE
Cosmos 1891 Rocket 4.4 19:27:45 10° S 19:33:54 74° E 19:40:13 10° NNE
COSMOS 2487 2.4 19:31:06 10° NNW 19:34:33 78° WSW 19:35:18 52° S
STARLINK-1057 3.5 19:30:40 10° WSW 19:34:48 86° NNW 19:35:45 53° ENE
STARLINK-62 4.2 19:32:03 10° WNW 19:35:23 36° N 19:35:55 34° NNE
Meteor 1-19 Rocket 4.2 19:31:04 10° N 19:36:54 66° ENE 19:40:38 22° SSE
STARLINK-34 4.2 19:33:41 10° WNW 19:37:01 36° N 19:37:30 34° NNE
SPOT 3 Rocket 3.6 19:36:24 38° SE 19:38:06 55° ENE 19:43:12 10° N
STARLINK-81 4.4 19:34:57 10° W 19:38:49 44° NNW 19:39:45 37° NNE
Cosmos 44 Rocket 3.3 19:35:05 10° NNW 19:39:46 58° NE 19:40:28 52° E
STARLINK-1034 3.6 19:35:38 10° WSW 19:39:46 82° NNW 19:40:31 59° NE
Cosmos 468 Rocket 4.0 19:35:12 10° S 19:40:21 57° ESE 19:44:32 16° NNE
STARLINK-54 4.4 19:36:51 10° W 19:40:42 42° N 19:41:32 37° NNE
Meteor 2-4 Rocket 4.0 19:35:11 10° N 19:40:54 48° ENE 19:42:12 41° ESE
STARLINK-77 4.3 19:38:18 10° W 19:42:10 43° N 19:42:57 38° NNE
Cosmos 1869 Rocket 3.5 19:38:03 10° S 19:42:47 58° ENE 19:46:43 10° NNE
Cosmos 2219 4.0 19:37:20 10° NNW 19:42:28 32° NE 19:42:42 32° NE
STARLINK-33 4.4 19:40:10 10° WNW 19:43:00 31° N 19:43:00 31° N
STARLINK-25 4.3 19:39:57 10° W 19:43:49 42° N 19:44:32 38° NNE
SJ 16-02 1.2 19:40:04 10° NNW 19:44:30 77° ENE 19:45:09 62° SE
BREEZE-M DEB (TANK) 4.2 19:41:33 10° W 19:44:38 48° SSW 19:47:33 28° SE
Meteor 1-25 Rocket 4.3 19:38:58 10° SSW 19:44:40 81° W 19:50:20 10° N
STARLINK-1068 3.6 19:40:37 10° WSW 19:44:45 78° NNW 19:45:17 64° NE
STARLINK-66 4.5 19:42:13 10° WNW 19:44:57 30° NNW 19:44:57 30° NNW
STARLINK-55 4.5 19:42:25 10° WNW 19:45:08 30° NNW 19:45:08 30° NNW
STARLINK-71 4.4 19:41:54 10° W 19:45:44 41° N 19:46:21 38° NNE
ADEOS Rocket 4.1 19:38:55 10° N 19:46:32 63° WNW 19:54:05 10° SSW
STARLINK-1007 4.2 19:43:38 10° W 19:46:24 35° NNW 19:46:24 35° NNW
STARLINK-79 4.3 19:43:17 10° W 19:47:08 42° N 19:47:42 39° NNE
STARLINK-78 4.4 19:45:00 10° W 19:48:50 41° N 19:49:19 39° N
Cosmos 1656 Rocket 3.8 19:43:29 10° SSW 19:49:00 76° WNW 19:54:40 10° NNE
Cosmos 1898 Rocket 3.4 19:44:53 10° NNW 19:50:06 89° W 19:52:08 38° SSE
STARLINK-57 4.4 19:46:46 10° W 19:50:36 41° N 19:51:01 39° N
STARLINK-49 4.4 19:48:17 10° W 19:52:07 41° N 19:52:28 40° N
SJ-6B 2.7 19:52:30 77° NW 19:52:30 77° NW 19:56:05 10° NNW
Cosmos 489 Rocket 4.4 19:47:14 10° SSW 19:53:34 80° ESE 19:59:56 10° NNE
STARLINK-27 4.4 19:49:58 10° W 19:53:48 41° N 19:54:04 40° N
STARLINK-1060 3.7 19:50:36 10° WSW 19:54:44 70° NNW 19:54:51 69° N
STARLINK-74 4.4 19:51:38 10° W 19:55:28 40° N 19:55:40 40° N
STARLINK-39 4.4 19:53:18 10° W 19:57:07 40° N 19:57:15 40° N
STARLINK-31 4.5 19:55:00 10° WNW 19:58:49 40° N 19:58:51 40° N
Cosmos 1464 Rocket 4.1 19:52:56 10° SSW 19:59:18 77° W 20:05:43 10° N
Nadezhda 4 Rocket 3.9 19:53:01 10° N 19:59:21 85° E 20:03:47 21° S
STARLINK-1030 3.8 19:55:38 10° WSW 19:59:41 66° NNW 19:59:41 66° NNW
Cosmos 2369 Rocket 3.8 19:57:31 10° WSW 20:02:38 34° NW 20:07:50 10° NNE
STARLINK-1020 4.0 20:00:36 10° WSW 20:04:25 61° NW 20:04:25 61° NW
STARLINK-1047 4.0 20:01:31 10° WSW 20:05:23 60° NW 20:05:23 60° NW
Cosmos 2026 Rocket 4.3 20:00:05 10° N 20:05:16 44° NE 20:05:16 44° NE
Cosmos 1763 Rocket 3.3 20:02:16 10° SSW 20:07:24 78° ESE 20:07:24 78° ESE
USA 234 3.7 20:06:31 41° ENE 20:08:11 49° NNE 20:14:26 10° NW
STARLINK-1052 4.2 20:05:38 10° WSW 20:09:14 55° NW 20:09:14 55° NW
MetOp-A 4.0 20:11:17 75° SE 20:11:43 83° ENE 20:17:07 10° NNW
Cosmos 2221 Rocket 4.4 20:08:35 10° N 20:11:44 44° N 20:11:44 44° N
NOSS 3-2 (A) 4.2 20:09:19 10° NW 20:16:26 53° NE 20:17:38 49° ENE
NOSS 3-2 (C) 4.5 20:10:33 10° NW 20:17:22 42° NE 20:18:24 40° NE
Timation 2 Rocket 4.3 20:12:04 10° NNW 20:18:56 72° WSW 20:21:36 40° S
Cosmos 2034 Rocket 4.1 20:13:03 10° SSW 20:19:12 75° W 20:25:23 10° N
ARGOS 4.0 20:20:43 16° SSW 20:24:51 47° W 20:30:06 10° NNW
BREEZE-M DEB (TANK) 3.6 20:06:28 10° W 20:26:57 80° N 20:27:48 67° ENE
H-2A R/B 3.7 20:30:14 10° SSW 20:35:04 34° W 20:40:00 10° NNW
CENTAUR R/B 3.5 20:33:26 10° NW 20:40:53 47° NE 20:41:17 47° NE
Lacrosse 5 4.0 20:36:33 10° SW 20:37:46 17° SW 20:37:46 17° SW
Cosmos 1092 Rocket 4.1 20:36:35 10° NNW 20:42:56 73° W 20:43:32 68° SW
Cosmos 1937 Rocket 4.4 20:40:23 10° NW 20:45:21 43° WSW 20:45:28 43° WSW
Cosmos 2297 Rocket 3.1 20:40:20 10° NNW 20:44:06 41° N 20:44:06 41° N
Lacrosse 5 rocket 3.5 20:42:38 10° NW 20:44:58 26° NNW 20:44:58 26° NNW
Resurs 01 Rocket 3.7 20:53:04 24° NNW 20:53:04 24° NNW 20:54:52 10° NNW
ATLAS 3B R/B 3.7 20:45:31 10° NNW 20:50:49 33° NNE 20:50:49 33° NNE
Cosmos 2227 Rocket 3.4 20:58:44 10° NNW 21:01:57 35° NNW 21:01:57 35° NNW
USA 238 DEB 4.1 21:07:49 10° NW 21:13:47 65° NW 21:13:47 65° NW
USA 238 4.1 21:07:55 10° NW 21:13:52 65° NW 21:13:52 65° NW
SJ 16-02 4.3 21:20:40 10° WNW 21:22:12 12° W 21:22:12 12° W
USA 234 4.4 21:53:52 37° WNW 21:53:52 37° WNW 21:57:33 10° NW
CENTAUR R/B 4.3 22:24:08 10° NW 22:28:29 36° NW 22:28:29 36° NW
